Zurück zum Katalog

SL-14 DEB

AktivPO
NORAD 29065·DEBRIS·🇷🇺 Russia

Gestartet Oct 26, 1978 von Plesetsk Cosmodrome

Loading…

Nächste Überflüge (nächste 24 Stunden)

TLE

AktuellSource: Space-Track

Epoche: Sep 11, 2026, 11:56 UTC

1 29065U 78100AX  26254.49785946  .00000093  00000-0  10508-2 0  9997
2 29065  82.5387 317.4949 0023008  83.2943 339.0909 11.98939381589519

Verfolge SL-14 DEB in Echtzeit mit AllMySat

Download on the App Store